This demonstration page uses our WeatherBlox Daily Observations layout. Learn more.

Left ArrowRight Arrow

30.21309, -93.2044

Hourly Observations for January 22, 2022

Temp ( °F °C ) Dew Point ( °F °C ) Humidity (%) Winds ( mph kmh ) Pressure ( in mb ) Visibility ( mi km ) Precip ( " mm )
12:15 am 00:15 Clear 31 -0.3 18 -7.9 57 57 NNE 12 19 30.40 1029 10 16 0.00 0.00
12:35 am 00:35 Clear 31 -0.5 18 -7.7 59 59 NNE 12 19 30.39 1029 10 16 0.00 0.00
12:55 am 00:55 Clear 31 -0.5 18 -7.6 59 59 NNE 14 22 30.39 1029 10 16 0.00 0.00
1:15 am 01:15 Clear 31 -0.7 19 -7.3 61 61 NE 12 19 30.40 1029 10 16 0.00 0.00
1:35 am 01:35 Clear 30 -1.1 19 -7.1 64 64 NNE 12 19 30.40 1029 10 16 0.00 0.00
1:55 am 01:55 Clear 30 -1.3 19 -7 66 66 NE 8 13 30.40 1029 10 16 0.00 0.00
2:15 am 02:15 Clear 29 -1.6 20 -6.7 69 69 NE 8 13 30.40 1029 10 16 0.00 0.00
2:35 am 02:35 Clear 29 -1.9 20 -6.6 71 71 NNE 8 13 30.40 1029 10 16 0.00 0.00
2:55 am 02:55 Clear 29 -1.9 20 -6.6 71 71 NNE 9 15 30.40 1029 10 16 0.00 0.00
3:15 am 03:15 Clear 28 -2 20 -6.5 72 72 NNE 8 13 30.41 1030 10 16 0.00 0.00
3:35 am 03:35 Clear 28 -2 20 -6.5 72 72 NNE 8 13 30.41 1030 10 16 0.00 0.00
3:55 am 03:55 Clear 28 -2.1 20 -6.5 72 72 NNE 9 15 30.41 1030 10 16 0.00 0.00
4:15 am 04:15 Clear 28 -2.2 20 -6.4 73 73 NE 8 13 30.41 1030 10 16 0.00 0.00
4:35 am 04:35 Clear 28 -2.3 20 -6.4 74 74 NNE 8 13 30.41 1030 10 16 0.00 0.00
4:55 am 04:55 Clear 28 -2.5 20 -6.5 74 74 NNE 8 13 30.42 1030 10 16 0.00 0.00
5:15 am 05:15 Clear 27 -2.6 20 -6.5 75 75 NNE 7 11 30.44 1031 10 16 0.00 0.00
5:35 am 05:35 Clear 27 -2.8 20 -6.4 77 77 NNE 6 9 30.44 1031 10 16 0.00 0.00
6:00 am 06:00 Mostly Clear 27 -3 19 -7 74 74 NNE 7 11 30.45 1031 10 16 0.00 0.00
6:50 am 06:50 Mostly Clear 27 -3 19 -7 74 74 NNE 7 11 30.47 1032 10 16 0.00 0.00
7:51 am 07:51 Mostly Sunny 27 -3 21 -6 80 80 NE 8 13 30.48 1032 10 16 0.00 0.00
8:55 am 08:55 Mostly Sunny 30 -1 19 -7 64 64 NE 10 17 30.50 1033 10 16 0.00 0.00
9:50 am 09:50 Mostly Sunny 34 1 19 -7 56 56 NE 14 22 30.51 1033 10 16 0.00 0.00
10:47 am 10:47 Mostly Sunny 37 3 19 -7 48 48 N 14 22 30.50 1033 10 16 0.00 0.00
11:51 am 11:51 Mostly Sunny 43 6 16 -9 34 34 NNE 8 13 30.46 1032 10 16 0.00 0.00
12:49 pm 12:49 Mostly Sunny 45 7 18 -8 34 34 NE 8 13 30.42 1030 10 16 0.00 0.00
1:49 pm 13:49 Mostly Sunny 46 8 16 -9 29 29 NNE 10 17 30.39 1029 10 16 0.00 0.00
2:45 pm 14:45 Mostly Sunny 48 9 14 -10 25 25 NNE 12 19 30.38 1029 10 16 0.00 0.00
3:47 pm 15:47 Mostly Sunny 48 9 16 -9 27 27 NNE 12 19 30.35 1028 10 16 0.00 0.00
4:48 pm 16:48 Mostly Sunny 46 8 14 -10 27 27 NNE 7 11 30.35 1028 10 16 0.00 0.00
5:35 pm 17:35 Partly Cloudy with Smoke 45 7 16 -9 31 31 N 8 13 30.35 1028 1 2 0.00 0.00
5:45 pm 17:45 Mostly Clear with Smoke 45 7 16 -9 31 31 N 8 13 30.36 1028 1 2 0.00 0.00
6:30 pm 18:30 Mostly Clear with Smoke 43 6 16 -9 34 34 Calm 30.36 1028 7 11 0.00 0.00
6:45 pm 18:45 Mostly Clear with Smoke 43 6 16 -9 34 34 Calm 30.36 1028 7 11 0.00 0.00
7:45 pm 19:45 Mostly Clear 41 5 16 -9 36 36 Calm 30.37 1028 10 16 0.00 0.00
8:50 pm 20:50 Mostly Clear 37 3 18 -8 45 45 Calm 30.38 1029 10 16 0.00 0.00
9:45 pm 21:45 Mostly Clear 36 2 18 -8 48 48 Calm 30.38 1029 10 16 0.00 0.00
10:15 pm 22:15 Clear 35 1.7 20 -6.9 53 53 N 5 7 30.38 1029 10 16 0.00 0.00
10:35 pm 22:35 Clear 36 2.1 18 -7.6 49 49 N 5 7 30.38 1029 10 16 0.00 0.00
10:55 pm 22:55 Clear 34 1.3 19 -7.2 54 54 NNE 6 9 30.37 1028 10 16 0.00 0.00
11:15 pm 23:15 Clear 35 1.6 19 -7.3 52 52 N 3 6 30.36 1028 10 16 0.00 0.00
11:35 pm 23:35 Clear 34 1.2 19 -7 55 55 NNE 6 9 30.36 1028 10 16 0.00 0.00
11:55 pm 23:55 Clear 33 0.7 19 -7.2 56 56 NE 5 7 30.36 1028 10 16 0.00 0.00

Powered by AerisWeather